{"data":{"norad_id":68768,"intl_designator":"2026-086C","name":"STARLINK-37279","alt_names":[],"object_type":"PAYLOAD","status":"ACTIVE","operator":null,"country":"US","launch_date":"2026-04-19","launch_site_code":"AFWTR","launch_vehicle":null,"mission":null,"orbit_class":"UNKNOWN","rcs_meters":null,"size_class":null,"mass_kg":null,"dimensions":null,"purposes":["comms"],"wikipedia_slug":null,"has_3d_model":false,"image_url":null,"decayed_at":null,"tle_current":{"epoch":"2026-05-25T04:00:03.998880Z","epoch_age_seconds":50825,"freshness":"FRESH","line1":"1 68768U 26086C   26145.16671295 -.01914666  00000+0 -25046-1 0  9994","line2":"2 68768  97.2846 181.9930 0001711  84.8377 189.4381 15.61804694  6061","mean_motion":15.61804694,"eccentricity":0.0001711,"inclination_deg":97.2846,"raan_deg":181.993,"arg_perigee_deg":84.8377,"mean_anomaly_deg":189.4381,"bstar":-0.025046,"rev_number":606,"period_min":92.201029074382,"perigee_km":381.28734154062,"apogee_km":383.60081238516,"semimajor_km":6760.5810769629,"source":"CELESTRAK","updated_at":"2026-05-25T13:38:22.033587Z"}}}